This demonstration page uses our WeatherBlox Daily Observations layout. Learn more.

Left ArrowRight Arrow

34.16533, -84.80231

Hourly Observations for April 28, 2020

Temp ( °F °C ) Dew Point ( °F °C ) Humidity (%) Winds ( mph kmh ) Pressure ( in mb ) Visibility ( mi km ) Precip ( " mm )
12:53 am 00:53 Clear 47 8.3 44 6.7 90 90 Calm 30.17 1022 10 16 0.00 0.00
1:53 am 01:53 Clear 46 7.8 43 6.1 89 89 Calm 30.16 1021 10 16 0.00 0.00
2:53 am 02:53 Clear 46 7.8 43 6.1 89 89 Calm 30.14 1021 10 16 0.00 0.00
3:53 am 03:53 Clear 45 7.2 43 6.1 93 93 Calm 30.14 1021 10 16 0.00 0.00
4:53 am 04:53 Clear 48 8.9 44 6.7 86 86 Calm 30.14 1021 10 16 0.00 0.00
5:53 am 05:53 Mostly Cloudy 49 9.4 46 7.8 90 90 Calm 30.16 1021 10 16 0.00 0.00
6:53 am 06:53 Mostly Cloudy 50 10 46 7.8 86 86 Calm 30.16 1021 10 16 0.00 0.00
7:53 am 07:53 Sunny 53 11.7 46 7.8 77 77 Calm 30.19 1022 10 16 0.00 0.00
8:53 am 08:53 Partly Cloudy 58 14.4 49 9.4 72 72 Calm 30.20 1023 10 16 0.00 0.00
9:53 am 09:53 Cloudy 61 16.1 51 10.6 70 70 Calm 30.21 1023 10 16 0.00 0.00
10:53 am 10:53 Partly Cloudy 67 19.4 51 10.6 57 57 Calm 30.20 1023 10 16 0.00 0.00
11:53 am 11:53 Sunny 72 22.2 47 8.3 41 41 VRB 3 6 30.17 1022 10 16 0.00 0.00
12:53 pm 12:53 Sunny 76 24.4 45 7.2 33 33 NNE 5 7 30.14 1021 10 16 0.00 0.00
1:53 pm 13:53 Sunny 77 25 42 5.6 29 29 VRB 6 9 30.11 1020 10 16 0.00 0.00
2:53 pm 14:53 Sunny 78 25.6 43 6.1 29 29 VRB 3 6 30.09 1019 10 16 0.00 0.00
3:53 pm 15:53 Sunny 80 26.7 46 7.8 30 30 SSE 8 13 30.07 1018 10 16 0.00 0.00
4:53 pm 16:53 Partly Cloudy 76 24.4 45 7.2 33 33 S 8 13 30.05 1018 10 16 0.00 0.00
5:53 pm 17:53 Sunny 79 26.1 45 7.2 30 30 S 8 13 30.03 1017 10 16 0.00 0.00
6:53 pm 18:53 Mostly Cloudy 76 24.4 43 6.1 31 31 S 9 15 30.02 1017 10 16 0.00 0.00
7:53 pm 19:53 Sunny 71 21.7 48 8.9 44 44 S 3 6 30.02 1017 10 16 0.00 0.00
8:53 pm 20:53 Clear 62 16.7 50 10 65 65 SSE 3 6 30.03 1017 10 16 0.00 0.00
9:53 pm 21:53 Clear 59 15 50 10 72 72 SSE 5 7 30.02 1017 10 16 0.00 0.00
10:53 pm 22:53 Clear 63 17.2 47 8.3 56 56 SSE 6 9 29.98 1015 10 16 0.00 0.00
11:53 pm 23:53 Clear 59 15 49 9.4 69 69 Calm 29.97 1015 10 16 0.00 0.00

Powered by AerisWeather